Location: Strohbehn Observatory
(42.4649°N, 93.8239°W)
Time: 20:27:51
(UTC-05:00)

SL-16 R/B - Visible Passes

Search period start: 29 April 2016 00:00
Search period end: 09 May 2016 00:00
Orbit: 843 x 846 km, 71.0° (Epoch: 29 April)

Date Brightness Start Highest point End Pass type
(mag) Time Alt. Az. Time Alt. Az. Time Alt. Az.
29 Apr 4.5 01:38:33 13° WNW 01:40:48 16° NW 01:44:10 10° N visible
29 Apr 4.3 22:00:14 11° ENE 22:00:14 11° ENE 22:00:33 10° ENE visible
29 Apr 2.2 23:42:03 76° NNE 23:42:03 76° NNE 23:47:17 10° NNE visible
30 Apr 4.5 01:23:52 12° WNW 01:26:31 16° NW 01:29:59 10° N visible
30 Apr 4.2 21:45:28 11° E 21:45:28 11° E 21:46:04 10° ENE visible
30 Apr 2.0 23:27:16 87° SSE 23:27:21 88° ESE 23:33:03 10° NNE visible
01 May 4.6 01:09:03 11° W 01:12:15 17° NW 01:15:49 10° N visible
01 May 4.1 21:30:31 11° E 21:30:31 11° E 21:31:33 10° ENE visible
01 May 2.0 23:12:18 67° SSW 23:13:06 85° ESE 23:18:49 10° NNE visible
02 May 4.6 00:54:19 10° W 00:57:58 17° NW 01:01:38 10° N visible
02 May 4.0 21:15:22 11° E 21:15:44 11° E 21:16:55 10° E visible
02 May 2.0 22:57:07 47° SSW 22:58:52 83° ESE 23:04:33 10° NNE visible
03 May 4.6 00:39:57 10° W 00:43:42 18° NW 00:47:28 10° N visible
03 May 4.0 21:01:02 10° E 21:01:31 10° E 21:02:01 10° E visible
03 May 2.1 22:41:36 29° SSW 22:44:37 80° ESE 22:50:19 10° NNE visible
04 May 4.6 00:25:35 10° W 00:29:25 18° NW 00:33:18 10° N visible
04 May 2.1 22:25:30 14° SSW 22:30:23 77° ESE 22:36:04 10° NNE visible
05 May 4.6 00:11:13 10° W 00:15:09 19° NW 00:19:06 10° N visible
05 May 2.1 22:10:31 10° SSW 22:16:09 74° ESE 22:21:49 10° NNE visible
05 May 4.6 23:56:52 10° W 00:00:53 19° NW 00:04:55 10° N visible
06 May 2.1 21:56:17 10° SSW 22:01:54 72° ESE 22:07:34 10° NNE visible
06 May 4.6 23:42:30 10° W 23:46:36 20° NW 23:50:43 10° N visible
07 May 2.1 21:42:03 10° SSW 21:47:40 69° ESE 21:53:19 10° NNE visible
07 May 4.6 23:28:09 10° W 23:32:20 21° NW 23:36:31 10° N visible
08 May 2.2 21:27:50 10° SSW 21:33:25 66° ESE 21:39:04 10° NNE visible
08 May 4.6 23:13:48 10° W 23:18:03 21° NW 23:22:19 10° N visible
